| time (UTC) | temp C | wind direction | speed KPH | gust KPH | rain 1hr cm | rain 24hr cm | rain mn cm | humidity % | barometer mb |
| 20260505130111 | 10 | 51 | 9.7 | 27.4 | 0.00 | 0.00 | 0.00 | 83 | 1007.4 |
| 20260505124554 | 10 | 42 | 9.7 | 24.1 | 0.00 | 0.00 | 0.00 | 83 | 1006.9 |
| 20260505123055 | 10 | 29 | 8.0 | 19.3 | 0.00 | 0.00 | 0.00 | 84 | 1006.7 |
| 20260505121548 | 10 | 57 | 12.9 | 27.4 | 0.00 | 0.00 | 0.00 | 84 | 1006.3 |
| 20260505120049 | 10 | 41 | 9.7 | 27.4 | 0.00 | 0.00 | 0.00 | 84 | 1006.0 |
| 20260505114544 | 10 | 28 | 9.7 | 25.7 | 0.00 | 0.00 | 0.00 | 85 | 1005.9 |
| 20260505113041 | 11 | 32 | 9.7 | 25.7 | 0.00 | 0.00 | 0.00 | 86 | 1005.4 |
| 20260505111540 | 11 | 38 | 4.8 | 17.7 | 0.00 | 0.00 | 0.00 | 87 | 1005.7 |
| 20260505101534 | 11 | 65 | 11.3 | 25.7 | 0.00 | 0.00 | 0.00 | 84 | 1004.7 |
| 20260505100026 | 12 | 59 | 11.3 | 20.9 | 0.00 | 0.00 | 0.00 | 82 | 1004.8 |
| 20260505094522 | 13 | 12 | 11.3 | 25.7 | 0.00 | 0.00 | 0.00 | 80 | 1004.4 |
| 20260505093017 | 14 | 44 | 9.7 | 17.7 | 0.00 | 0.00 | 0.00 | 79 | 1004.4 |
| 20260505091515 | 15 | 46 | 6.4 | 16.1 | 0.00 | 0.00 | 0.00 | 77 | 1005.3 |
| 20260505090021 | 15 | 46 | 6.4 | 20.9 | 0.00 | 0.00 | 0.00 | 75 | 1005.2 |
| 20260505084506 | 16 | 333 | 11.3 | 32.2 | 0.00 | 0.00 | 0.00 | 82 | 1004.6 |
| 20260505083004 | 16 | 315 | 9.7 | 22.5 | 0.00 | 0.00 | 0.00 | 87 | 1004.0 |
| 20260505081602 | 16 | 203 | 0.0 | 1.6 | 0.00 | 0.00 | 0.00 | 85 | 1002.7 |
| 20260505080058 | 16 | 203 | 1.6 | 8.0 | 0.00 | 0.00 | 0.00 | 84 | 1002.4 |
| 20260505074557 | 16 | 200 | 3.2 | 11.3 | 0.00 | 0.00 | 0.00 | 84 | 1002.1 |
| 20260505073058 | 16 | 288 | 4.8 | 24.1 | 0.00 | 0.00 | 0.00 | 84 | 1002.1 |
| 20260505071553 | 16 | 274 | 17.7 | 30.6 | 0.00 | 0.00 | 0.00 | 83 | 1001.8 |
| 20260505070049 | 17 | 198 | 9.7 | 32.2 | 0.00 | 0.00 | 0.00 | 80 | 1000.3 |
| 20260505064546 | 18 | 155 | 20.9 | 37.0 | 0.00 | 0.00 | 0.00 | 73 | 1002.7 |
| 20260505063041 | 18 | 154 | 9.7 | 22.5 | 0.00 | 0.00 | 0.00 | 72 | 1003.2 |
| 20260505061539 | 18 | 184 | 8.0 | 14.5 | 0.00 | 0.00 | 0.00 | 72 | 1003.1 |
| 20260505060039 | 18 | 186 | 8.0 | 14.5 | 0.00 | 0.00 | 0.00 | 72 | 1003.0 |
| 20260505054543 | 18 | 159 | 8.0 | 19.3 | 0.00 | 0.00 | 0.00 | 72 | 1002.8 |
| 20260505053036 | 18 | 157 | 8.0 | 17.7 | 0.00 | 0.00 | 0.00 | 72 | 1003.0 |
| 20260505051532 | 18 | 151 | 6.4 | 12.9 | 0.00 | 0.00 | 0.00 | 73 | 1003.4 |
| 20260505041526 | 19 | 182 | 11.3 | 20.9 | 0.00 | 0.00 | 0.00 | 70 | 1002.6 |
| 20260505040029 | 19 | 149 | 9.7 | 19.3 | 0.00 | 0.00 | 0.00 | 70 | 1003.1 |
| 20260505034525 | 19 | 174 | 9.7 | 24.1 | 0.00 | 0.00 | 0.00 | 69 | 1003.1 |
| 20260505033034 | 20 | 200 | 14.5 | 22.5 | 0.00 | 0.00 | 0.00 | 67 | 1003.1 |
| 20260505031525 | 20 | 181 | 16.1 | 29.0 | 0.00 | 0.00 | 0.00 | 67 | 1002.9 |
| 20260505030023 | 20 | 194 | 11.3 | 27.4 | 0.00 | 0.00 | 0.00 | 66 | 1003.2 |
| 20260505024537 | 20 | 180 | 12.9 | 25.7 | 0.00 | 0.00 | 0.00 | 65 | 1003.1 |
| 20260505023033 | 20 | 184 | 11.3 | 24.1 | 0.00 | 0.00 | 0.00 | 66 | 1003.1 |
| 20260505021520 | 20 | 173 | 11.3 | 20.9 | 0.00 | 0.00 | 0.00 | 65 | 1003.0 |
| 20260505020021 | 21 | 173 | 11.3 | 30.6 | 0.00 | 0.00 | 0.00 | 64 | 1002.8 |
| 20260505014532 | 21 | 190 | 12.9 | 20.9 | 0.00 | 0.00 | 0.00 | 64 | 1002.5 |
| 20260505013019 | 21 | 152 | 14.5 | 29.0 | 0.00 | 0.00 | 0.00 | 64 | 1002.3 |
| 20260505011519 | 21 | 199 | 14.5 | 25.7 | 0.00 | 0.00 | 0.00 | 65 | 1002.4 |
| 20260505010020 | 21 | 196 | 9.7 | 20.9 | 0.00 | 0.00 | 0.00 | 66 | 1002.4 |
| 20260505004518 | 21 | 198 | 3.2 | 11.3 | 0.00 | 0.00 | 0.00 | 67 | 1002.5 |
| 20260505003016 | 22 | 177 | 3.2 | 9.7 | 0.00 | 0.00 | 0.00 | 66 | 1002.4 |
| 20260505001516 | 22 | 228 | 6.4 | 16.1 | 0.00 | 0.00 | 0.00 | 64 | 1002.3 |
| 20260505000016 | 22 | 187 | 8.0 | 19.3 | 0.00 | 0.00 | 0.00 | 62 | 1002.1 |
| 20260504234514 | 23 | 177 | 9.7 | 22.5 | 0.00 | 0.00 | 0.00 | 61 | 1002.0 |
| 20260504233013 | 23 | 200 | 8.0 | 17.7 | 0.00 | 0.00 | 0.00 | 61 | 1002.1 |
| 20260504231512 | 23 | 188 | 9.7 | 25.7 | 0.00 | 0.00 | 0.00 | 59 | 1002.1 |
| 20260504230013 | 25 | 207 | 9.7 | 27.4 | 0.00 | 0.00 | 0.00 | 57 | 1002.0 |
| 20260504224511 | 25 | 199 | 11.3 | 20.9 | 0.00 | 0.00 | 0.00 | 56 | 1001.9 |
| 20260504223011 | 25 | 226 | 14.5 | 33.8 | 0.00 | 0.00 | 0.00 | 57 | 1002.0 |
| 20260504221511 | 26 | 184 | 8.0 | 24.1 | 0.00 | 0.00 | 0.00 | 56 | 1002.0 |
| 20260504220008 | 26 | 188 | 14.5 | 24.1 | 0.00 | 0.00 | 0.00 | 55 | 1002.1 |
| 20260504214506 | 25 | 186 | 11.3 | 27.4 | 0.00 | 0.00 | 0.00 | 56 | 1002.3 |
| 20260504213006 | 26 | 214 | 12.9 | 35.4 | 0.00 | 0.00 | 0.00 | 57 | 1002.1 |
| 20260504211512 | 25 | 225 | 17.7 | 32.2 | 0.00 | 0.00 | 0.00 | 56 | 1002.3 |
| 20260504210003 | 26 | 211 | 9.7 | 30.6 | 0.00 | 0.00 | 0.00 | 58 | 1002.5 |
| 20260504204501 | 25 | 136 | 16.1 | 32.2 | 0.00 | 0.00 | 0.00 | 56 | 1002.5 |
| 20260504203135 | 25 | 242 | 14.5 | 29.0 | 0.00 | 0.00 | 0.00 | 56 | 1002.8 |
| 20260504201559 | 25 | 204 | 17.7 | 38.6 | 0.00 | 0.00 | 0.00 | 55 | 1003.0 |
| 20260504200057 | 25 | 225 | 14.5 | 40.2 | 0.00 | 0.00 | 0.00 | 57 | 1003.2 |
| 20260504194555 | 25 | 202 | 19.3 | 38.6 | 0.00 | 0.00 | 0.00 | 56 | 1003.3 |
| 20260504193053 | 25 | 230 | 12.9 | 33.8 | 0.00 | 0.00 | 0.00 | 56 | 1003.3 |
| 20260504191554 | 25 | 207 | 16.1 | 30.6 | 0.00 | 0.00 | 0.00 | 59 | 1003.4 |
| 20260504190054 | 25 | 232 | 20.9 | 37.0 | 0.00 | 0.00 | 0.00 | 55 | 1003.6 |
| 20260504184548 | 25 | 211 | 20.9 | 38.6 | 0.00 | 0.00 | 0.00 | 58 | 1003.7 |
| 20260504183046 | 24 | 215 | 16.1 | 30.6 | 0.00 | 0.00 | 0.00 | 58 | 1003.9 |
| 20260504181544 | 24 | 194 | 14.5 | 40.2 | 0.00 | 0.00 | 0.00 | 58 | 1004.0 |
| 20260504180042 | 24 | 225 | 14.5 | 37.0 | 0.00 | 0.00 | 0.00 | 59 | 1004.1 |
| 20260504174541 | 23 | 255 | 20.9 | 30.6 | 0.00 | 0.00 | 0.00 | 57 | 1004.2 |
| 20260504173041 | 23 | 180 | 14.5 | 37.0 | 0.00 | 0.00 | 0.00 | 57 | 1004.2 |
| 20260504171539 | 23 | 175 | 14.5 | 27.4 | 0.00 | 0.00 | 0.00 | 58 | 1004.3 |